User: anonymous   Login
Location: Mat�lon
(46.2791°N, 7.1028°E)
Time: 10:30:37
(UTC+00:00)
Language:

NOSS 2-2 (C) - Orbit

View from above orbital plane
View from above orbital plane
View from above satellite
View from above satellite

Ground track
Ground track

The orbit data is extracted from the following two-line orbital elements,

1 21799U 91076C   21206.94373431 0.00000350  00000-0  56615-4 0    04
2 21799  63.3219 176.2838 0868199  44.2120 315.7880 13.41524843    00
Epoch (UTC): 25 July 2021 22:38:58
Eccentricity: 0.0868199
inclination: 63.3219°
perigee height: 454 km
apogee height: 1753 km
right ascension of ascending node: 176.2838°
argument of perigee: 44.2120°
revolutions per day: 13.41524843
mean anomaly at epoch: 315.7880°
orbit number at epoch: 0

The dashed part of the orbit path shows where the satellite is in the earth's shadow,  

DLR